CW0179 Weather Reports


Display with metric or nautical units.
time (UTC)temp
F
wind
direction
speed
MPH
gust
MPH
rain 1hr
in
rain 24hr
in
rain mn
in
humidity
%
barometer
mb
20260509220227 57 253 0.0 1.0 0.00 0.23 0.23 97 1010.0
20260509214133 57 167 0.0 0.0 0.00 0.23 0.23 96 1010.4
20260509213149 57 166 0.0 0.0 0.00 0.21 0.21 96 1010.6
20260509211027 57 166 0.0 0.0 0.04 0.21 0.21 96 1010.8
20260509205955 57 166 0.0 0.0 0.06 0.21 0.21 96 1010.6
20260509205015 57 167 0.0 0.0 0.09 0.21 0.21 96 1010.6
20260509204015 57 123 0.0 0.0 0.06 0.19 0.19 96 1010.9
20260509203031 57 123 0.0 1.0 0.00 0.18 0.18 96 1011.0
20260509202041 57 139 0.0 2.0 0.00 0.16 0.17 96 1011.0
20260509201024 57 160 0.0 0.0 0.04 0.16 0.17 96 1010.4
20260509194855 57 162 0.0 0.0 0.05 0.16 0.16 95 1011.0
20260509193839 57 162 0.0 0.0 0.06 0.14 0.15 95 1011.0
20260509191716 57 162 0.0 0.0 0.13 0.12 0.12 94 1011.0
20260509190716 57 163 0.0 0.0 0.08 0.09 0.10 94 1011.0
20260509185704 57 163 0.0 0.0 0.10 0.09 0.09 93 1010.9
20260509184642 57 165 0.0 0.0 0.08 0.06 0.06 93 1011.0
20260509183610 58 150 0.0 0.0 0.04 0.06 0.06 92 1010.5
20260509182548 58 150 0.0 0.0 0.05 0.04 0.05 90 1010.4
20260509175143 62 101 0.0 0.0 0.00 0.02 0.02 75 1010.3
20260509174130 64 116 0.0 0.0 0.00 0.02 0.02 72 1010.1
20260509173059 65 145 0.0 0.0 0.00 0.02 0.02 70 1010.1
20260509172026 66 23 0.0 2.0 0.00 0.02 0.02 68 1010.2
20260509171047 67 88 0.0 0.0 0.00 0.02 0.02 68 1010.3
20260509164958 67 104 0.0 2.0 0.00 0.02 0.02 71 1010.6
20260509164016 65 91 0.0 0.0 0.00 0.02 0.02 73 1011.0
20260509161804 64 293 0.0 0.0 0.00 0.02 0.02 76 1011.3
20260509160818 63 330 0.0 0.0 0.00 0.02 0.02 77 1011.3
20260509155806 62 352 0.0 0.0 0.00 0.02 0.02 76 1011.4
20260509154750 62 153 0.0 0.0 0.00 0.02 0.02 77 1011.5
20260509153732 62 158 0.0 0.0 0.00 0.02 0.02 75 1011.6
20260509152706 62 126 0.0 0.0 0.00 0.02 0.02 78 1011.7
20260509151712 61 188 0.0 0.0 0.00 0.02 0.02 77 1011.5
20260509150715 61 181 0.0 2.0 0.00 0.02 0.02 78 1011.6
20260509145656 62 94 0.0 1.0 0.00 0.02 0.02 77 1011.8
20260509144631 61 112 0.0 1.0 0.00 0.02 0.02 79 1011.7
20260509143632 60 188 0.0 1.0 0.00 0.02 0.02 81 1011.6
20260509142601 60 49 0.0 1.0 0.00 0.02 0.02 80 1011.9
20260509140434 59 249 0.0 4.0 0.00 0.02 0.02 82 1011.5
20260509134353 58 152 0.0 0.0 0.00 0.02 0.02 89 1012.0
20260509132320 56 263 0.0 0.0 0.00 0.02 0.02 94 1011.8
20260509131314 55 264 0.0 0.0 0.00 0.02 0.02 94 1012.1
20260509130249 54 238 0.0 1.0 0.00 0.02 0.02 95 1011.9
20260509125307 54 158 0.0 0.0 0.00 0.02 0.02 95 1012.3
20260509124246 53 160 0.0 0.0 0.00 0.02 0.02 95 1012.4
20260509123304 53 162 0.0 0.0 0.00 0.02 0.02 96 1012.6
20260509122257 53 82 0.0 0.0 0.00 0.02 0.02 96 1012.7
20260509121250 52 158 0.0 0.0 0.00 0.01 0.01 97 1012.6
20260509120310 52 158 0.0 0.0 0.00 0.01 0.01 97 1012.8
20260509115328 52 159 0.0 0.0 0.00 0.01 0.01 97 1012.4
20260509114314 51 158 0.0 0.0 0.00 0.01 0.01 97 1012.5
20260509113305 51 170 0.0 0.0 0.00 0.01 0.01 97 1012.6
20260509110108 50 170 0.0 0.0 0.00 0.01 0.01 97 1012.6
20260509105050 50 170 0.0 0.0 0.00 0.01 0.01 97 1012.5
20260509104036 50 170 0.0 0.0 0.00 0.01 0.01 97 1012.2
20260509103100 50 170 0.0 0.0 0.00 0.01 0.01 97 1012.0
20260509102112 50 170 0.0 0.0 0.00 0.01 0.01 97 1011.9
20260509101041 50 195 0.0 0.0 0.00 0.01 0.01 97 1012.0
20260509100045 50 153 0.0 0.0 0.00 0.01 0.01 97 1012.1
20260509095102 49 181 0.0 0.0 0.00 0.01 0.01 97 1012.0
20260509091851 49 143 0.0 0.0 0.00 0.01 0.01 96 1012.1
20260509090901 49 143 0.0 0.0 0.00 0.01 0.01 96 1012.2
20260509085858 49 143 0.0 0.0 0.00 0.01 0.01 96 1012.1
20260509082629 49 143 0.0 0.0 0.00 0.01 0.01 96 1012.2
20260509081642 49 144 0.0 0.0 0.00 0.01 0.01 96 1012.3
20260509080610 49 143 0.0 0.0 0.00 0.01 0.01 95 1012.2
20260509075619 49 144 0.0 0.0 0.00 0.01 0.01 95 1012.1
20260509074555 49 143 0.0 0.0 0.00 0.01 0.01 95 1012.1
20260509073523 49 143 0.0 0.0 0.00 0.01 0.01 95 1012.2
20260509071423 49 143 0.0 0.0 0.00 0.00 0.00 94 1012.2
20260509064116 49 143 0.0 0.0 0.00 0.01 0.00 93 1012.1
20260509063124 49 144 0.0 0.0 0.00 0.01 0.00 93 1012.2
20260509062136 49 143 0.0 0.0 0.00 0.01 0.00 92 1012.4
20260509061130 49 143 0.0 0.0 0.00 0.01 0.00 92 1012.6
20260509060107 49 143 0.0 0.0 0.00 0.01 0.00 92 1012.3
20260509055130 49 143 0.0 0.0 0.00 0.01 0.00 93 1012.5
20260509054129 48 143 0.0 0.0 0.00 0.01 0.00 93 1012.7
20260509053149 48 143 0.0 0.0 0.00 0.01 0.00 92 1012.7
20260509052209 48 143 0.0 0.0 0.00 0.01 0.00 92 1012.6
20260509051208 48 143 0.0 0.0 0.00 0.01 0.00 90 1012.5
20260509045008 49 143 0.0 0.0 0.00 0.01 0.00 88 1012.6
20260509043943 50 143 0.0 0.0 0.00 0.01 0.00 88 1012.5
20260509042949 50 143 0.0 0.0 0.00 0.01 0.00 88 1012.6
20260509042001 51 143 0.0 0.0 0.00 0.01 0.00 88 1012.5
20260509040944 51 143 0.0 0.0 0.00 0.01 0.00 87 1012.6
20260509035926 51 143 0.0 0.0 0.00 0.01 0.01 87 1012.7
20260509034924 51 144 0.0 0.0 0.00 0.01 0.01 87 1012.8
20260509033941 51 143 0.0 0.0 0.00 0.01 0.01 87 1012.7
20260509025541 50 143 0.0 0.0 0.00 0.01 0.01 84 1012.7
20260509024543 50 142 0.0 0.0 0.00 0.01 0.01 84 1012.5
20260509023607 50 142 0.0 0.0 0.00 0.01 0.01 84 1012.5
20260509022555 50 142 0.0 0.0 0.00 0.01 0.01 84 1012.5
20260509021602 49 143 0.0 0.0 0.00 0.01 0.01 83 1012.4
20260509020542 49 142 0.0 0.0 0.00 0.01 0.01 83 1012.4
20260509015521 49 142 0.0 0.0 0.00 0.01 0.01 85 1012.3
20260509014547 48 143 0.0 0.0 0.00 0.01 0.01 85 1012.0
20260509013605 48 143 0.0 0.0 0.00 0.01 0.01 84 1012.0
20260509012545 48 143 0.0 0.0 0.00 0.01 0.01 83 1011.9
20260509011543 48 143 0.0 0.0 0.00 0.01 0.01 82 1011.8
20260509010529 48 143 0.0 0.0 0.00 0.01 0.01 81 1011.8
20260509005459 49 143 0.0 0.0 0.00 0.01 0.01 77 1011.6
20260509004426 50 143 0.0 0.0 0.00 0.01 0.01 76 1011.4
20260509003406 51 143 0.0 0.0 0.00 0.01 0.01 73 1011.2
20260509001230 54 142 0.0 0.0 0.00 0.01 0.01 67 1011.1
20260508235057 57 143 0.0 0.0 0.00 0.01 0.01 62 1010.7
20260508234038 57 143 0.0 0.0 0.00 0.01 0.01 61 1010.9
20260508233051 57 134 0.0 1.0 0.00 0.01 0.01 61 1010.9
20260508232059 57 141 0.0 1.0 0.00 0.01 0.01 60 1010.5
20260508231121 58 158 0.0 0.0 0.00 0.01 0.01 62 1010.6
20260508230140 58 270 0.0 0.0 0.00 0.01 0.01 60 1010.5
20260508225200 59 11 0.0 0.0 0.00 0.01 0.01 59 1010.4
20260508224155 59 174 0.0 0.0 0.00 0.01 0.01 59 1010.4
20260508222042 60 170 0.0 3.0 0.00 0.01 0.01 54 1010.3